Flag for United Kingdom

Past Weather in Middlesbrough, England, United Kingdom — Yesterday and Last 2 Weeks

Now
54 °F

Partly cloudy.


Feels Like: 51 °F
Forecast: 55 / 43 °F
Wind: 8 mph from South

Location: Tees-Side
Current Time: Sep 30, 2020 at 9:12:19 pm
Latest Report: Sep 30, 2020 at 8:20 pm
Visibility: 5 mi
Pressure29.47 "Hg
Humidity: 94%
Dew Point: 52 °F
Location of MiddlesbroughLocation

Past Weather in Middlesbrough — Graph

°F

Middlesbrough Temperature Yesterday

Maximum temperature yesterday: 66 °F (at 1:50 pm)
Minimum temperature yesterday: 41 °F (at 7:20 am)
Average temperature yesterday: 53 °F

High & Low Weather Summary for the Past Weeks

 TemperatureHumidityPressure
High72 °F (Sep 15, 7:20 pm)100% (Sep 17, 6:50 am)30.51 "Hg (Sep 17, 6:50 am)
Low34 °F (Sep 28, 6:20 am)40% (Sep 29, 1:50 pm)29.33 "Hg (Sep 24, 6:50 am)
Average53 °F78%29.95 "Hg
* Reported Sep 15 7:20 pm — Sep 30 7:20 pm, Middlesbrough. Weather by CustomWeather, © 2020

Note: Actual official high and low records may vary slightly from our data, if they occured in-between our weather recording intervals... More about our weather records

Middlesbrough Weather History for the Previous 24 Hours

Scroll right to see more
 ConditionsComfort  
Time TempWeatherWind HumidityBarometerVisibility
7:20 pm
Wed, Sep 30
55 °FLight rain. Passing clouds.13 mph88%29.47 "Hg4 mi
6:50 pm54 °FLight rain. Passing clouds.12 mph94%29.47 "Hg4 mi
6:20 pm54 °FLight rain. Scattered clouds.13 mph94%29.50 "Hg4 mi
5:50 pm54 °FLight rain. Scattered clouds.14 mph88%29.50 "Hg6 mi
4:20 pm54 °FLight rain. Partly sunny.17 mph88%29.53 "HgN/A
3:50 pm55 °FLight rain. Partly sunny.17 mph82%29.53 "HgN/A
3:20 pm55 °FLight rain. Partly sunny.21 mph77%29.53 "HgN/A
2:50 pm54 °FLight rain. Partly sunny.21 mph82%29.53 "Hg6 mi
2:20 pm55 °FPartly sunny.23 mph77%29.53 "Hg6 mi
1:50 pm55 °FLight rain. Scattered clouds.22 mph77%29.53 "Hg5 mi
1:20 pm55 °FPassing clouds.20 mph77%29.56 "HgN/A
12:50 pm54 °FPassing clouds.21 mph77%29.59 "HgN/A
12:20 pm54 °FScattered clouds.21 mph82%29.59 "HgN/A
11:50 am52 °FLight rain. Passing clouds.20 mph82%29.59 "HgN/A
11:20 am52 °FLight rain. Passing clouds.18 mph82%29.62 "HgN/A
10:50 am52 °FPassing clouds.20 mph77%29.62 "HgN/A
10:20 am52 °FLight rain. Passing clouds.23 mph77%29.62 "HgN/A
9:50 am52 °FPassing clouds.21 mph77%29.65 "HgN/A
9:20 am50 °FLight rain. Passing clouds.17 mph82%29.65 "HgN/A
8:50 am50 °FPassing clouds.10 mph82%29.68 "HgN/A
8:20 am48 °FPassing clouds.13 mph87%29.68 "HgN/A
7:50 am48 °FPartly sunny.12 mph87%29.71 "HgN/A
7:20 am48 °FScattered clouds.14 mph82%29.71 "HgN/A
6:50 am48 °FPassing clouds.14 mph82%29.71 "HgN/A
6:20 am48 °FClear.12 mph82%29.71 "Hg10 mi
5:50 am46 °FClear.10 mph87%29.74 "Hg10 mi
9:50 pm
Tue, Sep 29
46 °FClear.3 mph82%29.92 "Hg10 mi
9:20 pm46 °FClear.3 mph82%29.92 "Hg10 mi
Weather by CustomWeather, © 2020

See weather overview